• In France
  • List of Countries
  • For 7 days
  • Water Temperature
  • Satellite Maps
  • Weather Map
  • Weather Widgets
  • user-avatar
    Login

    Hourly Weather Kiustendil

    Today, 18 January, Thursday

    Time Temperature Precipitation Wind Pressure Humidity
    00:00 -10°C° 0.2 mm 6 mps 610 mmHg 78%
    01:00 -10°C° 0.2 mm 6 mps 610 mmHg 77%
    02:00 -11°C° 0 mm 6 mps 611 mmHg 76%
    03:00 -11°C° 0 mm 6 mps 611 mmHg 75%
    04:00 -13°C° 0 mm 7 mps 612 mmHg 74%
    05:00 -13°C° 0 mm 7 mps 612 mmHg 73%
    06:00 -13°C° 0 mm 7 mps 613 mmHg 72%
    07:00 -13°C° 0 mm 7 mps 614 mmHg 71%
    08:00 -13°C° 0 mm 7 mps 615 mmHg 69%
    09:00 -12°C° 0 mm 8 mps 616 mmHg 66%
    10:00 -11°C° 0 mm 9 mps 617 mmHg 63%
    11:00 -11°C° 0 mm 9 mps 617 mmHg 61%
    12:00 -10°C° 0 mm 8 mps 618 mmHg 58%
    13:00 -10°C° 0 mm 8 mps 618 mmHg 56%
    14:00 -9°C° 0 mm 7 mps 619 mmHg 59%
    15:00 -10°C° 0 mm 5 mps 619 mmHg 61%
    16:00 -9°C° 0 mm 4 mps 619 mmHg 64%
    17:00 -9°C° 0 mm 3 mps 619 mmHg 66%
    18:00 -8°C° 0 mm 2 mps 619 mmHg 68%
    19:00 -8°C° 0 mm 1 mps 619 mmHg 71%
    20:00 -8°C° 0 mm 1 mps 619 mmHg 69%
    21:00 -8°C° 0 mm 1 mps 619 mmHg 67%
    22:00 -8°C° 0 mm 1 mps 619 mmHg 65%
    23:00 -8°C° 0 mm 1 mps 619 mmHg 63%

    Tomorrow, 19 January, Friday

    Time Temperature Precipitation Wind Pressure Humidity
    00:00 -8°C° 0 mm 1 mps 619 mmHg 61%
    01:00 -7°C° 0 mm 1 mps 619 mmHg 59%
    02:00 -7°C° 0 mm 1 mps 619 mmHg 58%
    03:00 -7°C° 0 mm 1 mps 619 mmHg 57%
    04:00 -7°C° 0 mm 1 mps 618 mmHg 57%
    05:00 -7°C° 0 mm 1 mps 619 mmHg 56%
    06:00 -7°C° 0 mm 1 mps 619 mmHg 56%
    07:00 -7°C° 0 mm 1 mps 619 mmHg 55%
    08:00 -4°C° 0 mm 1 mps 619 mmHg 52%
    09:00 -2°C° 0 mm 1 mps 620 mmHg 48%
    10:00 0°C° 0 mm 1 mps 621 mmHg 44%
    11:00 0°C° 0 mm 1 mps 621 mmHg 43%
    12:00 +1°C° 0 mm 1 mps 621 mmHg 42%
    13:00 +2°C° 0 mm 1 mps 621 mmHg 42%
    14:00 +1°C° 0 mm 1 mps 620 mmHg 46%
    15:00 0°C° 0 mm 1 mps 620 mmHg 51%
    16:00 -1°C° 0 mm 1 mps 619 mmHg 56%
    17:00 -2°C° 0 mm 1 mps 619 mmHg 58%
    18:00 -3°C° 0 mm 1 mps 619 mmHg 60%
    19:00 -6°C° 0 mm 2 mps 619 mmHg 62%
    20:00 -6°C° 0 mm 2 mps 619 mmHg 64%
    21:00 -6°C° 0 mm 2 mps 619 mmHg 66%
    22:00 -6°C° 0 mm 2 mps 619 mmHg 67%
    23:00 -6°C° 0 mm 2 mps 618 mmHg 69%

    Day after tomorrow, 20 January, Saturday

    Time Temperature Precipitation Wind Pressure Humidity
    00:00 -6°C° 0 mm 2 mps 618 mmHg 71%
    01:00 -6°C° 0 mm 2 mps 618 mmHg 73%
    02:00 -6°C° 0 mm 2 mps 618 mmHg 73%
    03:00 -6°C° 0 mm 2 mps 618 mmHg 74%
    04:00 -6°C° 0 mm 2 mps 618 mmHg 75%
    05:00 -6°C° 0 mm 2 mps 618 mmHg 76%
    06:00 -6°C° 0 mm 2 mps 618 mmHg 77%
    07:00 -4°C° 0 mm 1 mps 619 mmHg 78%
    08:00 -2°C° 0 mm 1 mps 619 mmHg 74%
    09:00 -1°C° 0 mm 1 mps 620 mmHg 70%
    10:00 +1°C° 0 mm 1 mps 620 mmHg 67%
    11:00 +1°C° 0 mm 1 mps 620 mmHg 65%
    12:00 +1°C° 0 mm 2 mps 620 mmHg 64%
    13:00 +2°C° 0 mm 2 mps 620 mmHg 62%
    14:00 +1°C° 0 mm 2 mps 619 mmHg 66%
    15:00 -1°C° 0 mm 2 mps 619 mmHg 70%
    16:00 -1°C° 0 mm 2 mps 618 mmHg 74%
    17:00 -2°C° 0 mm 2 mps 618 mmHg 77%
    18:00 -3°C° 0 mm 2 mps 617 mmHg 79%
    19:00 -3°C° 0 mm 2 mps 617 mmHg 81%
    20:00 -3°C° 0.4 mm 2 mps 617 mmHg 84%
    21:00 -3°C° 0.4 mm 2 mps 617 mmHg 87%
    22:00 -4°C° 0.4 mm 2 mps 617 mmHg 89%
    23:00 -4°C° 0.2 mm 2 mps 617 mmHg 91%

    21 January, Sunday

    Time Temperature Precipitation Wind Pressure Humidity
    00:00 -4°C° 0.2 mm 2 mps 617 mmHg 92%
    01:00 -4°C° 0.2 mm 2 mps 617 mmHg 93%
    02:00 -3°C° 0 mm 1 mps 617 mmHg 92%
    03:00 -3°C° 0 mm 1 mps 617 mmHg 92%
    04:00 -3°C° 0 mm 1 mps 617 mmHg 91%
    05:00 -3°C° 0 mm 1 mps 617 mmHg 89%
    06:00 -3°C° 0 mm 1 mps 617 mmHg 88%
    07:00 -4°C° 0 mm 0 mps 617 mmHg 86%
    08:00 -3°C° 0 mm 0 mps 617 mmHg 80%
    09:00 -1°C° 0 mm 1 mps 618 mmHg 75%
    10:00 0°C° 0 mm 1 mps 618 mmHg 70%
    11:00 0°C° 0 mm 1 mps 618 mmHg 66%
    12:00 +1°C° 0 mm 1 mps 618 mmHg 62%
    13:00 +1°C° 0 mm 1 mps 617 mmHg 58%
    14:00 0°C° 0.2 mm 1 mps 617 mmHg 63%
    15:00 0°C° 0.2 mm 1 mps 617 mmHg 68%
    16:00 -3°C° 0.2 mm 2 mps 617 mmHg 74%
    17:00 -4°C° 0.3 mm 2 mps 617 mmHg 77%
    18:00 -6°C° 0.3 mm 3 mps 617 mmHg 80%
    19:00 -7°C° 0.3 mm 4 mps 617 mmHg 83%
    20:00 -8°C° 0.2 mm 4 mps 617 mmHg 83%
    21:00 -8°C° 0.2 mm 4 mps 618 mmHg 83%
    22:00 -10°C° 0.2 mm 5 mps 618 mmHg 83%
    23:00 -10°C° 0.1 mm 5 mps 618 mmHg 83%

    22 January, Monday

    Time Temperature Precipitation Wind Pressure Humidity
    00:00 -10°C° 0.1 mm 4 mps 618 mmHg 83%
    01:00 -10°C° 0.1 mm 4 mps 618 mmHg 83%
    02:00 -11°C° 0 mm 4 mps 618 mmHg 82%
    03:00 -11°C° 0 mm 4 mps 618 mmHg 82%
    04:00 -12°C° 0 mm 4 mps 618 mmHg 82%
    05:00 -12°C° 0 mm 4 mps 618 mmHg 81%
    06:00 -14°C° 0 mm 4 mps 619 mmHg 80%
    07:00 -14°C° 0 mm 4 mps 619 mmHg 79%
    08:00 -12°C° 0 mm 4 mps 620 mmHg 74%
    09:00 -11°C° 0 mm 4 mps 620 mmHg 69%
    10:00 -11°C° 0 mm 4 mps 621 mmHg 64%
    11:00 -11°C° 0 mm 5 mps 621 mmHg 63%
    12:00 -11°C° 0 mm 5 mps 621 mmHg 63%
    13:00 -10°C° 0 mm 5 mps 622 mmHg 62%
    14:00 -10°C° 0 mm 4 mps 622 mmHg 64%
    15:00 -10°C° 0 mm 4 mps 622 mmHg 67%
    16:00 -11°C° 0 mm 4 mps 623 mmHg 69%
    17:00 -11°C° 0 mm 4 mps 623 mmHg 72%
    18:00 -12°C° 0 mm 3 mps 623 mmHg 76%
    19:00 -13°C° 0 mm 3 mps 624 mmHg 79%
    20:00 -12°C° 0 mm 2 mps 624 mmHg 80%
    21:00 -12°C° 0 mm 2 mps 624 mmHg 80%
    22:00 -12°C° 0 mm 2 mps 625 mmHg 81%
    23:00 -13°C° 0 mm 2 mps 625 mmHg 81%

    23 January, Tuesday

    Time Temperature Precipitation Wind Pressure Humidity
    00:00 -13°C° 0 mm 2 mps 625 mmHg 81%
    01:00 -13°C° 0 mm 2 mps 625 mmHg 82%
    02:00 -13°C° 0 mm 2 mps 625 mmHg 82%
    03:00 -13°C° 0 mm 2 mps 625 mmHg 81%
    04:00 -13°C° 0 mm 2 mps 625 mmHg 81%
    05:00 -11°C° 0 mm 1 mps 625 mmHg 80%
    06:00 -12°C° 0 mm 1 mps 626 mmHg 79%
    07:00 -12°C° 0 mm 1 mps 626 mmHg 79%
    08:00 -10°C° 0 mm 1 mps 627 mmHg 70%
    09:00 -9°C° 0 mm 2 mps 627 mmHg 62%
    10:00 -8°C° 0 mm 2 mps 628 mmHg 54%
    11:00 -7°C° 0 mm 2 mps 628 mmHg 50%
    12:00 -6°C° 0 mm 2 mps 628 mmHg 46%
    13:00 -5°C° 0 mm 2 mps 628 mmHg 42%
    14:00 -6°C° 0 mm 2 mps 628 mmHg 46%
    15:00 -6°C° 0 mm 1 mps 627 mmHg 50%
    16:00 -6°C° 0 mm 1 mps 627 mmHg 54%
    17:00 -7°C° 0 mm 1 mps 627 mmHg 55%
    18:00 -8°C° 0 mm 1 mps 627 mmHg 56%
    19:00 -9°C° 0 mm 1 mps 627 mmHg 58%
    20:00 -9°C° 0 mm 1 mps 627 mmHg 55%
    21:00 -9°C° 0 mm 1 mps 627 mmHg 53%
    22:00 -8°C° 0 mm 1 mps 627 mmHg 50%
    23:00 -8°C° 0 mm 1 mps 627 mmHg 51%
    Show more